Change the Weather History Date:

Saturday, November 23, 2013

  Actual Average Record
Temperature  
Mean Temperature 10 °F -  
Max Temperature 18 °F 43 °F 65 °F (1974)
Min Temperature 1 °F 23 °F 1 °F (2013)
Degree Days  
Heating Degree Days 56    
Moisture  
Dew Point 3 °F    
Average Humidity 71    
Maximum Humidity 81    
Minimum Humidity 58    
Precipitation  
Precipitation 0.00 in - - ()
Sea Level Pressure  
Sea Level Pressure 30.76 in    
Wind  
Wind Speed 11 mph (NNW)    
Max Wind Speed 17 mph    
Max Gust Speed 22 mph    
Visibility 10 miles    
Events      
Averages and records for this station are not official NWS values.
T = Trace of Precipitation, MM = Missing Value Source: NWS Daily Summary

Daily Weather History Graph

Daily Weather History Graph

Search for Another Location

Airport or City:

Trip Planner

Search our weather history database for the weather conditions in past years. The results will help you decide how hot, cold, wet, or windy it might be!

Date:

Astronomy

Nov. 23, 2013 Rise Set
Actual Time 7:15 AM CST 4:49 PM CST
Civil Twilight 6:45 AM CST 5:20 PM CST
Nautical Twilight 6:11 AM CST 5:54 PM CST
Astronomical Twilight 5:37 AM CST 6:27 PM CST
Moon 10:21 PM CST (11/23) 11:31 AM CST (11/23)
Length of Visible Light 10h 35m
Length of Day
9h 33m
Waning Gibbous, 69% of the Moon is Illuminated
Nov 23
Waning Gibbous
Nov 25
Last Quarter
Dec 2
New
Dec 9
First Quarter
Dec 17
Full

Hourly Weather History & Observations

Time (CST) Temp. Windchill Dew Point Humidity Pressure Visibility Wind Dir Wind Speed Gust Speed Precip Events Conditions
12:15 AM 16.2 °F 3.2 °F 9.1 °F 74% 30.60 in 10.0 mi NNW 11.5 mph - N/A   Clear
12:35 AM 17.4 °F 4.7 °F 10.2 °F 73% 30.61 in 10.0 mi NNW 11.5 mph - N/A   Clear
12:55 AM 17.4 °F 5.4 °F 10.2 °F 73% 30.62 in 10.0 mi NNW 10.4 mph - N/A   Clear
1:15 AM 18.0 °F 4.8 °F 10.4 °F 72% 30.63 in 10.0 mi NNW 12.7 mph - N/A   Clear
1:35 AM 17.4 °F 6.2 °F 10.4 °F 74% 30.63 in 10.0 mi NNW 9.2 mph - N/A   Clear
1:55 AM 16.9 °F 5.5 °F 10.6 °F 76% 30.64 in 10.0 mi NNW 9.2 mph - N/A   Clear
2:15 AM 17.6 °F 4.3 °F 11.3 °F 76% 30.65 in 10.0 mi NNW 12.7 mph - N/A   Clear
2:35 AM 17.4 °F 2.9 °F 9.5 °F 71% 30.66 in 10.0 mi NNW 15.0 mph - N/A   Clear
2:55 AM 15.8 °F 0.9 °F 5.9 °F 65% 30.67 in 10.0 mi NNW 15.0 mph - N/A   Clear
3:15 AM 14.9 °F -1.3 °F 5.7 °F 67% 30.67 in 10.0 mi North 17.3 mph 20.7 mph N/A   Clear
3:35 AM 14.2 °F 0.0 °F 5.4 °F 68% 30.67 in 10.0 mi NNW 12.7 mph - N/A   Clear
3:55 AM 14.0 °F -0.8 °F 5.2 °F 68% 30.68 in 10.0 mi NNW 13.8 mph 18.4 mph N/A   Clear
4:15 AM 13.8 °F -0.5 °F 4.5 °F 66% 30.69 in 10.0 mi NNW 12.7 mph - N/A   Clear
4:35 AM 13.1 °F -2.0 °F 4.5 °F 68% 30.70 in 10.0 mi NNW 13.8 mph 17.3 mph N/A   Clear
4:55 AM 12.6 °F -3.3 °F 4.1 °F 69% 30.72 in 10.0 mi NNW 15.0 mph - N/A   Clear
5:15 AM 12.0 °F -4.0 °F 3.2 °F 68% 30.72 in 10.0 mi NNW 15.0 mph - N/A   Clear
5:35 AM 11.5 °F -3.4 °F 2.8 °F 68% 30.73 in 10.0 mi NNW 12.7 mph - N/A   Clear
5:55 AM 10.9 °F -5.4 °F 2.8 °F 70% 30.74 in 10.0 mi North 15.0 mph 21.9 mph N/A   Clear
6:15 AM 10.2 °F -5.7 °F 2.8 °F 72% 30.74 in 10.0 mi NNW 13.8 mph - N/A   Clear
6:35 AM 10.0 °F -4.5 °F 2.7 °F 72% 30.75 in 10.0 mi NNW 11.5 mph - N/A   Clear
6:55 AM 9.5 °F -7.8 °F 2.3 °F 73% 30.76 in 10.0 mi North 16.1 mph 20.7 mph N/A   Clear
7:15 AM 9.1 °F -8.2 °F 2.5 °F 74% 30.77 in 10.0 mi North 16.1 mph 20.7 mph N/A   Clear
7:35 AM 9.1 °F -7.7 °F 2.3 °F 74% 30.79 in 10.0 mi North 15.0 mph - N/A   Clear
7:55 AM 9.0 °F -7.3 °F 2.3 °F 74% 30.80 in 10.0 mi NNW 13.8 mph - N/A   Clear
8:15 AM 9.1 °F -7.7 °F 2.3 °F 74% 30.80 in 10.0 mi NNW 15.0 mph - N/A   Clear
8:35 AM 9.5 °F -7.8 °F 2.8 °F 74% 30.81 in 10.0 mi NNW 16.1 mph - N/A   Clear
8:55 AM 9.7 °F -5.0 °F 3.0 °F 74% 30.82 in 10.0 mi NNW 11.5 mph 15.0 mph N/A   Clear
9:15 AM 9.9 °F -7.9 °F 2.8 °F 73% 30.83 in 10.0 mi NNW 17.3 mph - N/A   Clear
9:35 AM 10.2 °F -6.3 °F 3.2 °F 73% 30.84 in 10.0 mi NNW 15.0 mph - N/A   Clear
9:55 AM 10.2 °F -5.0 °F 3.6 °F 74% 30.84 in 7.0 mi NNW 12.7 mph - N/A   Scattered Clouds
10:15 AM 11.3 °F -4.3 °F 3.7 °F 72% 30.85 in 10.0 mi North 13.8 mph - N/A   Scattered Clouds
10:35 AM 12.0 °F -2.7 °F 4.6 °F 72% 30.84 in 10.0 mi North 12.7 mph - N/A   Scattered Clouds
10:55 AM 12.4 °F -3.5 °F 5.4 °F 73% 30.84 in 10.0 mi NNW 15.0 mph - N/A   Clear
11:15 AM 13.1 °F -3.1 °F 5.5 °F 72% 30.83 in 10.0 mi NNW 16.1 mph - N/A   Scattered Clouds
11:35 AM 13.6 °F -2.4 °F 5.7 °F 71% 30.83 in 10.0 mi NNW 16.1 mph - N/A   Scattered Clouds
11:55 AM 13.8 °F -1.1 °F 5.7 °F 70% 30.83 in 10.0 mi NNW 13.8 mph 18.4 mph N/A   Clear
12:15 PM 14.4 °F -0.4 °F 6.1 °F 70% 30.82 in 10.0 mi NNW 13.8 mph - N/A   Scattered Clouds
12:35 PM 14.9 °F 0.3 °F 6.3 °F 69% 30.82 in 10.0 mi NNW 13.8 mph - N/A   Clear
12:55 PM 15.4 °F 1.6 °F 6.3 °F 67% 30.83 in 10.0 mi NNW 12.7 mph 18.4 mph N/A   Clear
1:15 PM 15.6 °F 2.5 °F 6.1 °F 66% 30.82 in 10.0 mi North 11.5 mph 18.4 mph N/A   Clear
1:35 PM 15.8 °F 2.7 °F 5.9 °F 65% 30.81 in 10.0 mi NNW 11.5 mph - N/A   Clear
1:55 PM 16.5 °F 3.0 °F 5.9 °F 63% 30.82 in 10.0 mi NNW 12.7 mph - N/A   Clear
2:15 PM 16.5 °F 3.6 °F 4.6 °F 60% 30.81 in 10.0 mi NNW 11.5 mph - N/A   Clear
2:35 PM 16.7 °F 3.8 °F 5.0 °F 60% 30.81 in 10.0 mi North 11.5 mph - N/A   Clear
2:55 PM 16.7 °F 3.8 °F 4.3 °F 58% 30.80 in 10.0 mi North 11.5 mph - N/A   Clear
3:15 PM 16.7 °F 4.5 °F 4.3 °F 58% 30.80 in 10.0 mi North 10.4 mph - N/A   Clear
3:35 PM 16.5 °F 4.3 °F 3.9 °F 58% 30.81 in 10.0 mi North 10.4 mph - N/A   Clear
3:55 PM 16.3 °F 4.1 °F 4.1 °F 59% 30.81 in 10.0 mi North 10.4 mph - N/A   Clear
4:15 PM 15.8 °F 5.1 °F 4.1 °F 60% 30.81 in 10.0 mi North 8.1 mph - N/A   Clear
4:35 PM 15.4 °F 5.6 °F 4.3 °F 61% 30.80 in 10.0 mi North 6.9 mph - N/A   Clear
4:55 PM 13.8 °F 6.2 °F 3.4 °F 63% 30.80 in 10.0 mi NNW 4.6 mph - N/A   Clear
5:15 PM 12.2 °F 6.1 °F 3.0 °F 67% 30.80 in 10.0 mi NW 3.5 mph - N/A   Clear
5:35 PM 12.7 °F 6.7 °F 3.2 °F 66% 30.79 in 10.0 mi NW 3.5 mph - N/A   Clear
5:55 PM 11.3 °F 5.1 °F 3.2 °F 70% 30.78 in 10.0 mi NW 3.5 mph - N/A   Clear
6:15 PM 11.7 °F 3.7 °F 3.4 °F 69% 30.78 in 10.0 mi NW 4.6 mph - N/A   Clear
6:35 PM 7.9 °F 1.2 °F 1.8 °F 76% 30.78 in 10.0 mi West 3.5 mph - N/A   Clear
6:55 PM 8.6 °F 0.1 °F 2.1 °F 75% 30.78 in 10.0 mi West 4.6 mph - N/A   Clear
7:15 PM 7.7 °F -0.9 °F 1.2 °F 75% 30.78 in 10.0 mi WNW 4.6 mph - N/A   Clear
7:35 PM 5.0 °F -6.9 °F -0.6 °F 78% 30.78 in 10.0 mi West 6.9 mph - N/A   Clear
7:55 PM 3.7 °F -10.6 °F -2.0 °F 77% 30.78 in 10.0 mi West 9.2 mph - N/A   Clear
8:15 PM 4.3 °F -9.0 °F -1.5 °F 77% 30.78 in 10.0 mi West 8.1 mph - N/A   Clear
8:35 PM 2.3 °F -8.8 °F -2.9 °F 79% 30.77 in 10.0 mi West 5.8 mph - N/A   Clear
8:55 PM 3.9 °F - -1.7 °F 78% 30.77 in 10.0 mi Calm Calm - N/A   Clear
9:15 PM 2.5 °F -8.6 °F -2.7 °F 79% 30.78 in 10.0 mi West 5.8 mph - N/A   Clear
9:35 PM 4.5 °F - -0.9 °F 78% 30.76 in 10.0 mi Calm Calm - N/A   Clear
9:55 PM 3.7 °F - -1.3 °F 80% 30.76 in 10.0 mi Calm Calm - N/A   Clear
10:15 PM 3.2 °F - -1.5 °F 81% 30.76 in 10.0 mi Calm Calm - N/A   Clear
10:35 PM 2.3 °F -5.2 °F -2.4 °F 81% 30.76 in 10.0 mi West 3.5 mph - N/A   Clear
10:55 PM 2.7 °F -6.8 °F -2.7 °F 78% 30.76 in 10.0 mi West 4.6 mph - N/A   Clear
11:15 PM 1.8 °F -10.8 °F -3.1 °F 80% 30.76 in 10.0 mi West 6.9 mph - N/A   Clear
11:35 PM 1.9 °F -10.6 °F -2.6 °F 81% 30.75 in 10.0 mi West 6.9 mph - N/A   Clear
11:55 PM 1.0 °F -11.7 °F -3.8 °F 80% 30.75 in 10.0 mi West 6.9 mph - N/A   Clear